Retour au catalogue

HULIANWANG DIGUI-163

ActifCommunicationsLEO
NORAD 68137·PAYLOAD·🇨🇳 China

Lancé Mar 12, 2026 depuis Wenchang Space Launch Site

Loading…

Prochains Passages (prochaines 24 heures)

TLE

FraisSource: Space-Track

Époque: Sep 14, 2026, 22:14 UTC

1 68137U 26047J   26257.92648933 -.00000100  00000-0  51284-4 0  9996
2 68137  50.0058  93.9980 0001199  72.5521 287.5482 13.29329515 25019

Suivez HULIANWANG DIGUI-163 en temps réel avec AllMySat

Download on the App Store